Hourly Weather Roundup
Issued by NWS Central Illinois

Home | Current Version | Previous Version | Text Only | Print | Product List | Glossary On
Versions: 1 2 3 4 5 6 7 8 9 10 11 12 13 14 15 16 17 18 19 20 21 22 23 24 25 26 27 28 29 30 31 32 33 34 35 36 37 38 39 40 41 42 43 44 45 46 47 48 49 50
240
NZUS43 KILX 052010
HWRILX

AREA WEATHER ROUNDUP
NATIONAL WEATHER SERVICE, LINCOLN IL
300 PM CDT THU MAY 05 2016


CITY           SKY/WX    TMP DP  RH WIND       PRES   REMARKS
BLOOMINGTON    MOSUNNY   64  45  48 N9        30.00S
CHAMPAIGN      MOSUNNY   67  43  41 N10G21    29.96S
DANVILLE       MOSUNNY   64  44  48 N18       29.93S
DECATUR        MOSUNNY   64  46  52 N10G21    29.99S
EFFINGHAM      PTSUNNY   62  49  63 NW12      30.00S
FLORA          CLOUDY    62  47  58 N10G17    29.99S
GALESBURG      SUNNY     64  41  43 N9        30.03F
JACKSONVILLE   SUNNY     65  41  41 N9        30.02F
LACON          NOT AVBL
LAWRENCEVILLE  CLOUDY    62  47  57 N15       29.96F
LITCHFIELD     PTSUNNY   61  44  53 N12       30.01F
$$


CITY           SKY/WX    TMP DP  RH WIND       PRES   REMARKS
LINCOLN        MOSUNNY   66  48  52 N9        30.00S
MACOMB         SUNNY     65  38  36 N10G16    30.05F
MATTOON        MOSUNNY   65  44  46 N16       29.96S
MT CARMEL AP   PTSUNNY   61  46  59 N12G18    29.96F
OLNEY-NOBLE AP CLOUDY    59  46  63 NW13      29.98S
PARIS          SUNNY     63  46  53 NE9       29.96S
PEORIA         MOSUNNY   66  43  43 N10       30.01F
PONTIAC        PTSUNNY   65  46  50 N8G20     29.99F
RANTOUL        MOSUNNY   67  42  41 N14G21    29.97S
ROBINSON       PTSUNNY   60  48  64 NW9G16    29.96S
SPRINGFIELD    MOSUNNY   67  43  41 NW15      30.01F
TAYLORVILLE    PTSUNNY   63  44  51 N16       30.01S
$$

...REGIONAL REPORTS...


CITY           SKY/WX    TMP DP  RH WIND       PRES   REMARKS
CHICAGO O`HARE MOSUNNY   60  42  51 E10       29.99S
KANKAKEE       SUNNY     63  44  50 N8G17     29.99S
MOLINE         SUNNY     67  36  31 NW10      30.02F
MOUNT STERLING SUNNY     62  40  43 N10       30.03F
MOUNT VERNON   CLOUDY    57  43  58 N5        30.01S
PITTSFIELD     SUNNY     63  40  42 N3        30.05S
QUINCY         SUNNY     64  40  41 N12       30.05S
ROCKFORD       SUNNY     65  38  36 W8        30.02F
$$


CITY           SKY/WX    TMP DP  RH WIND       PRES   REMARKS
BURLINGTON     SUNNY     65  40  39 N9        30.04F
CEDAR RAPIDS   SUNNY     66  37  34 VRB6      30.03F
DES MOINES     MOSUNNY   69  32  25 VRB6      30.06F
KIRKSVILLE     PTSUNNY   67  34  29 N13       30.08R
OTTUMWA        MOSUNNY   66  34  30 N7        30.06F
ST LOUIS       MOSUNNY   65  42  43 N10       30.03S
$$


CITY           SKY/WX    TMP DP  RH WIND       PRES   REMARKS
TERRE HAUTE    MOSUNNY   63  45  51 N13G20    29.94S
EVANSVILLE     CLOUDY    58  44  60 N10G22    29.96S
INDIANAPOLIS   PTSUNNY   60  46  59 NW13      29.91S
LAFAYETTE      MOSUNNY   63  45  51 N14G22    29.94S
MADISON        SUNNY     64  37  36 CALM      29.99F
MILWAUKEE      MOSUNNY   54  39  57 NE9       30.00F
$$






USA.gov is the U.S. government's official web portal to all federal, state and local government web resources and services.